EW9507 Weather Reports


Display with metric or nautical units.
time (UTC)temp
F
wind
direction
speed
MPH
gust
MPH
rain 1hr
in
rain 24hr
in
rain mn
in
humidity
%
barometer
mb
20260509181510 53 322 13.0 24.0 0.00 0.00 0.00 74 1010.3
20260509180008 53 319 16.0 29.0 0.00 0.00 0.00 70 1010.3
20260509174505 53 310 11.0 18.0 0.00 0.00 0.00 68 1010.1
20260509173003 54 314 13.0 23.0 0.00 0.00 0.00 57 1010.1
20260509171505 55 331 10.0 18.0 0.00 0.00 0.00 56 1010.0
20260509170101 55 335 10.0 20.0 0.00 0.00 0.00 53 1009.8
20260509164557 55 307 14.0 22.0 0.00 0.00 0.00 52 1009.6
20260509163104 56 332 9.0 16.0 0.00 0.00 0.00 50 1009.1
20260509161553 56 303 12.0 20.0 0.00 0.00 0.00 55 1009.0
20260509160058 54 326 10.0 15.0 0.00 0.00 0.00 61 1008.8
20260509154600 53 336 10.0 19.0 0.00 0.00 0.00 66 1008.7
20260509153049 52 328 12.0 18.0 0.00 0.00 0.00 68 1008.6
20260509151547 53 327 13.0 21.0 0.00 0.00 0.00 65 1008.5
20260509150045 52 321 11.0 21.0 0.00 0.00 0.00 67 1008.5
20260509144559 54 315 17.0 23.0 0.00 0.00 0.00 57 1008.2
20260509143041 54 334 16.0 26.0 0.00 0.00 0.00 55 1008.1
20260509141540 54 320 17.0 31.0 0.00 0.00 0.00 54 1008.0
20260509140055 54 314 16.0 26.0 0.00 0.00 0.00 53 1007.9
20260509134506 54 328 14.0 22.0 0.00 0.00 0.00 54 1007.7
20260509133005 54 311 13.0 20.0 0.00 0.00 0.00 52 1007.6
20260509131608 54 328 12.0 20.0 0.00 0.00 0.00 51 1007.3
20260509130107 54 358 9.0 16.0 0.00 0.00 0.00 51 1006.9
20260509124606 52 316 8.0 12.0 0.00 0.00 0.00 55 1006.9
20260509123055 52 307 9.0 14.0 0.00 0.00 0.00 53 1006.7
20260509121601 52 321 11.0 14.0 0.00 0.00 0.00 52 1006.5
20260509120023 53 318 8.0 14.0 0.00 0.00 0.00 50 1006.3
20260509114521 53 312 7.0 11.0 0.00 0.00 0.00 51 1006.2
20260509113017 54 313 7.0 12.0 0.00 0.00 0.00 48 1006.1
20260509111516 55 323 7.0 13.0 0.00 0.00 0.00 49 1006.1
20260509110016 55 317 6.0 9.0 0.00 0.00 0.00 51 1005.9
20260509104617 55 309 7.0 12.0 0.00 0.00 0.00 50 1005.8
20260509103044 55 320 9.0 17.0 0.00 0.00 0.00 49 1006.0
20260509101545 54 284 6.0 12.0 0.00 0.00 0.00 52 1005.8
20260509100040 55 269 5.0 9.0 0.00 0.00 0.00 50 1005.5
20260509094539 55 260 8.0 11.0 0.00 0.00 0.00 49 1005.5
20260509093039 56 278 5.0 8.0 0.00 0.00 0.00 49 1005.5
20260509091539 57 240 6.0 12.0 0.00 0.00 0.00 45 1005.4
20260509090009 61 8 11.0 22.0 0.00 0.00 0.00 35 1005.0
20260509084510 58 325 4.0 11.0 0.00 0.00 0.00 43 1005.4
20260509083102 57 295 12.0 21.0 0.00 0.00 0.00 45 1005.6
20260509081559 58 288 14.0 24.0 0.00 0.00 0.00 44 1005.6
20260509074601 58 262 12.0 19.0 0.00 0.00 0.00 43 1005.7
20260509073054 59 250 12.0 18.0 0.00 0.00 0.00 40 1005.7
20260509071551 60 276 11.0 22.0 0.00 0.00 0.00 40 1005.9
20260509070041 50 290 10.0 18.0 0.00 0.00 0.00 64 1006.2
20260509064536 48 227 3.0 5.0 0.00 0.00 0.00 62 1005.9
20260509063025 46 192 3.0 6.0 0.00 0.00 0.00 64 1005.7
20260509061528 46 199 1.0 3.0 0.00 0.00 0.00 63 1005.7
20260509060019 46 124 2.0 4.0 0.00 0.00 0.00 62 1005.7
20260509054519 46 193 2.0 4.0 0.00 0.00 0.00 61 1005.9
20260509053014 46 203 1.0 5.0 0.00 0.00 0.00 62 1005.9
20260509051512 46 193 1.0 3.0 0.00 0.00 0.00 61 1005.8
20260509050011 46 152 1.0 3.0 0.00 0.00 0.00 61 1006.0
20260509044511 46 218 2.0 3.0 0.00 0.00 0.00 59 1005.9
20260509043010 46 135 2.0 3.0 0.00 0.00 0.00 59 1005.9
20260509041508 46 197 1.0 3.0 0.00 0.00 0.00 58 1006.0
20260509040007 47 206 1.0 3.0 0.00 0.00 0.00 56 1006.0
20260509034507 47 201 0.0 3.0 0.00 0.00 0.00 55 1005.9
20260509033005 48 178 1.0 5.0 0.00 0.00 0.00 54 1006.0
20260509031505 49 140 1.0 3.0 0.00 0.00 0.00 50 1005.8
20260509030003 50 212 3.0 4.0 0.00 0.00 0.00 50 1005.6
20260509024503 52 240 1.0 3.0 0.00 0.00 0.00 47 1005.4
20260509023059 57 124 1.0 3.0 0.00 0.00 0.00 38 1005.3
20260509021559 61 245 1.0 3.0 0.00 0.00 0.00 34 1005.2
20260509020100 63 306 1.0 3.0 0.00 0.00 0.00 31 1005.2
20260509014602 65 344 1.0 3.0 0.00 0.00 0.00 30 1005.2
20260509013100 65 331 3.0 6.0 0.00 0.00 0.00 29 1005.2
20260509011551 65 337 3.0 8.0 0.00 0.00 0.00 29 1005.3
20260509010054 66 13 3.0 7.0 0.00 0.00 0.00 28 1005.5
20260509004547 66 337 5.0 8.0 0.00 0.00 0.00 29 1005.6
20260509003049 65 296 5.0 13.0 0.00 0.00 0.00 29 1005.8
20260509001541 67 283 6.0 14.0 0.00 0.00 0.00 27 1005.9
20260509000036 67 355 6.0 18.0 0.00 0.00 0.00 27 1006.0
20260508234536 66 290 7.0 15.0 0.00 0.00 0.00 28 1006.2
20260508233031 67 269 11.0 14.0 0.00 0.00 0.00 28 1006.4
20260508231526 66 46 2.0 15.0 0.00 0.00 0.00 28 1006.5
20260508230036 65 248 8.0 10.0 0.00 0.00 0.00 29 1006.7
20260508224531 65 252 7.0 13.0 0.00 0.00 0.00 28 1006.9
20260508223016 66 311 8.0 14.0 0.00 0.01 0.00 27 1007.1
20260508221525 66 239 9.0 13.0 0.00 0.01 0.00 27 1007.4
20260508220008 66 288 9.0 13.0 0.00 0.01 0.00 28 1007.5
20260508214502 66 255 7.0 11.0 0.00 0.01 0.00 28 1007.8
20260508213057 64 248 7.0 14.0 0.00 0.01 0.00 28 1008.1
20260508211553 65 257 11.0 14.0 0.00 0.01 0.00 28 1008.3
20260508210049 66 256 7.0 12.0 0.00 0.01 0.00 28 1008.5
20260508204543 65 240 12.0 16.0 0.00 0.01 0.00 28 1008.9
20260508203042 65 290 9.0 15.0 0.00 0.02 0.00 28 1009.0
20260508201535 65 309 3.0 12.0 0.00 0.02 0.00 29 1009.1
20260508200033 64 257 8.0 13.0 0.00 0.02 0.00 28 1009.5
20260508194526 64 293 8.0 16.0 0.00 0.02 0.00 30 1009.7
20260508193024 64 320 11.0 14.0 0.00 0.03 0.00 27 1010.0
20260508191556 63 297 9.0 16.0 0.00 0.03 0.00 30 1010.1
20260508190049 63 295 6.0 15.0 0.00 0.03 0.00 32 1010.2
20260508184542 62 291 10.0 15.0 0.00 0.03 0.00 32 1010.4
20260508183040 62 269 9.0 19.0 0.00 0.03 0.00 33 1010.4